Tracking 25378 objects as of 22-Jan-2022
HD Live streaming from Space Station
objects crossing your sky now

STARLINK-1927

Track STARLINK-1927 now!
10-day predictions
STARLINK-1927 is classified as:


NORAD ID: 47181
Int'l Code: 2020-088BM
Perigee: 553.2 km
Apogee: 555.6 km
Inclination: 53.1 °
Period: 95.6 minutes
Semi major axis: 6925 km
RCS: Unknown
Launch date: November 25, 2020
Source: United States (US)
Launch site: AIR FORCE EASTERN TEST RANGE (AFETR)
aabbcc
Your satellite tracking list
Your tracking list is empty




NASA's NSSDC Master Catalog

Two Line Element Set (TLE):
1 47181U 20088BM  22021.84663050 -.00001217  00000-0 -62849-4 0  9994
2 47181  53.0545 210.5890 0001786  73.6418 286.4767 15.06386302 65107
Source of the keplerian elements: AFSPC